{"data":{"norad_id":63867,"intl_designator":"2025-094D","name":"STARLINK-33979","alt_names":[],"object_type":"PAYLOAD","status":"ACTIVE","operator":null,"country":"US","launch_date":"2025-05-10","launch_site_code":"AFWTR","launch_vehicle":null,"mission":null,"orbit_class":"UNKNOWN","rcs_meters":null,"size_class":null,"mass_kg":null,"dimensions":null,"purposes":["comms"],"wikipedia_slug":null,"has_3d_model":false,"image_url":null,"decayed_at":null,"tle_current":{"epoch":"2026-09-19T12:47:13.899264Z","epoch_age_seconds":230608,"freshness":"STALE","line1":"1 63867U 25094D   26262.53279976  .00018540  00000+0  64738-3 0  9994","line2":"2 63867  69.9994 103.5386 0003307 266.4412  93.6385 15.29600549 76291","mean_motion":15.29600549,"eccentricity":0.0003307,"inclination_deg":69.9994,"raan_deg":103.5386,"arg_perigee_deg":266.4412,"mean_anomaly_deg":93.6385,"bstar":0.00064738,"rev_number":7629,"period_min":94.142225624946,"perigee_km":474.73851093776,"apogee_km":479.2725021916,"semimajor_km":6855.1425065647,"source":"CELESTRAK","updated_at":"2026-09-21T09:00:35.137615Z"}}}